Stations météo

réclame
Mon MeteoGroup
Farnborough, Grande-Bretagne (3768): Température de l'air & dewpoint: 18.05.2019 02:00:00 - 24.05.2019 02:00:00 (BST)Farnborough, Grande-Bretagne (3768): Température de l'air -100cm: 18.05.2019 02:00:00 - 24.05.2019 02:00:00 (BST)Farnborough, Grande-Bretagne (3768): Vitesse du vent: 18.05.2019 02:00:00 - 24.05.2019 02:00:00 (BST)Farnborough, Grande-Bretagne (3768): Direction du vent: 18.05.2019 02:00:00 - 24.05.2019 02:00:00 (BST)Farnborough, Grande-Bretagne (3768): reduced air pressure: 18.05.2019 02:00:00 - 24.05.2019 02:00:00 (BST)Farnborough, Grande-Bretagne (3768): visibility: 18.05.2019 02:00:00 - 24.05.2019 02:00:00 (BST)Farnborough, Grande-Bretagne (3768): Quantités de précipitations: 18.05.2019 02:00:00 - 24.05.2019 02:00:00 (BST)
Date & Time tt [°C] td [°C] tt -100cm [°C] ff [km/h] ff [knt] dd ppp [hPa] vv [km] rr [mm]
24.05.2019 02:00:00 10,5 7,8 - 11 6 WSW 1016,1 10 0,0
24.05.2019 01:00:00 10,1 6,1 - 8 4 SW 1016,1 10 0,0
24.05.2019 00:00:00 12,3 8,0 - 11 6 WSW 1015,8 10 0,0
23.05.2019 23:00:00 13,3 8,5 - 9 5 WSW 1015,8 10 0,0
23.05.2019 22:00:00 14,1 7,3 - 5 3 - 1015,5 10 0,0
23.05.2019 21:00:00 15,2 5,3 - 9 5 SSW 1015,2 10 0,0
23.05.2019 20:00:00 16,8 4,3 - 15 8 SSW 1014,9 10 0,0
23.05.2019 19:00:00 18,8 3,1 - 18 10 SSW 1014,6 10 0,0
23.05.2019 18:00:00 20,1 4,9 - 21 11 SSW 1014,6 10 0,0
23.05.2019 17:00:00 21,5 6,7 - 24 13 SSW 1014,6 10 0,0
23.05.2019 16:00:00 21,6 7,4 - 22 12 SSW 1014,8 10 0,0
23.05.2019 15:00:00 20,5 5,4 - 26 14 S 1015,1 10 0,0
23.05.2019 14:00:00 21,4 7,3 - 16 9 SW 1015,2 10 0,0
23.05.2019 13:00:00 21,0 8,1 - 16 9 S 1015,7 10 0,0
23.05.2019 12:00:00 20,0 8,2 - 8 4 - 1016,2 10 0,0
23.05.2019 11:00:00 18,9 7,2 - 8 4 - 1016,8 10 0,0
23.05.2019 10:00:00 17,6 8,1 12,4 4 2 - 1017,3 10 0,0
23.05.2019 09:00:00 15,8 6,9 - 4 2 - 1017,5 10 0,0
23.05.2019 08:00:00 13,3 7,7 - 4 2 - 1017,7 10 0,0
23.05.2019 07:00:00 10,9 7,7 - 5 3 - 1017,8 10 0,0
23.05.2019 06:00:00 7,2 6,1 - 5 3 - 1017,9 10 0,0
23.05.2019 05:00:00 6,2 4,9 - 5 3 - 1018,0 10 0,0
23.05.2019 04:00:00 7,3 4,9 - 4 2 N 1018,0 10 0,0
23.05.2019 03:00:00 9,5 5,5 - 2 1 - 1018,2 10 0,0
23.05.2019 02:00:00 8,1 5,0 - 2 1 - 1018,5 10 0,0
23.05.2019 01:00:00 9,3 4,9 - 0 0 N 1018,6 10 0,0
23.05.2019 00:00:00 9,5 4,5 - 8 4 SSW 1018,8 10 0,0
22.05.2019 23:00:00 11,2 4,1 - 2 1 S 1018,9 10 0,0
22.05.2019 22:00:00 12,5 3,5 - 8 4 SW 1018,9 10 0,0
22.05.2019 21:00:00 13,2 4,4 - 13 7 SW 1018,6 10 0,0
22.05.2019 20:00:00 16,6 4,5 - 15 8 SW 1018,3 10 0,0
22.05.2019 19:00:00 18,4 5,4 - 21 11 SSW 1018,3 10 0,0
22.05.2019 18:00:00 18,9 6,9 - 21 11 SSW 1018,5 10 0,0
22.05.2019 17:00:00 18,9 8,3 - 16 9 SSW 1018,8 10 0,0
22.05.2019 16:00:00 18,5 6,9 - 16 9 SSW 1019,1 10 0,0
22.05.2019 15:00:00 18,4 5,7 - 13 7 - 1019,5 10 0,0
22.05.2019 14:00:00 18,9 7,0 - 18 10 SSW 1019,7 10 0,0
22.05.2019 13:00:00 18,9 6,3 - 13 7 WSW 1019,9 10 0,0
22.05.2019 12:00:00 17,7 5,0 - 11 6 SW 1020,2 10 0,0
22.05.2019 11:00:00 16,9 3,7 - 5 3 - 1020,6 10 0,0
22.05.2019 10:00:00 16,0 5,6 12,2 4 2 - 1020,6 10 0,0
22.05.2019 09:00:00 14,6 4,7 - 4 2 - 1020,6 10 0,0
22.05.2019 08:00:00 12,0 7,3 - 2 1 - 1020,7 10 0,0
22.05.2019 07:00:00 8,1 7,1 - 2 1 - 1020,6 10 0,0
22.05.2019 06:00:00 6,3 5,2 - 5 3 WSW 1020,5 10 0,0
22.05.2019 05:00:00 6,8 5,3 - 5 3 SSW 1020,5 10 0,0
22.05.2019 04:00:00 6,1 4,7 - 8 4 SSW 1020,7 10 0,0
22.05.2019 03:00:00 7,4 5,8 - 4 2 SW 1020,6 10 0,0
22.05.2019 02:00:00 7,7 5,7 - 8 4 SW 1020,5 10 0,0
22.05.2019 01:00:00 8,1 5,9 - 8 4 WSW 1020,2 10 0,0
22.05.2019 00:00:00 8,1 5,4 - 8 4 SW 1020,3 10 0,0
21.05.2019 23:00:00 9,0 5,8 - 5 3 SSW 1020,0 10 0,0
21.05.2019 22:00:00 11,2 6,3 - 8 4 SW 1019,8 10 0,0
21.05.2019 21:00:00 15,9 5,9 - 9 5 N 1019,2 10 0,0
21.05.2019 20:00:00 17,9 6,1 - 16 9 N 1018,8 10 0,0
21.05.2019 19:00:00 17,7 4,6 - 15 8 WNW 1018,7 10 0,0
21.05.2019 18:00:00 19,5 6,2 - 15 8 NW 1018,5 10 0,0
21.05.2019 17:00:00 18,9 5,9 - 16 9 NNW 1018,5 10 0,0
21.05.2019 16:00:00 19,1 6,9 - 15 8 N 1018,4 10 0,0
21.05.2019 15:00:00 18,9 6,9 - 13 7 NW 1018,6 10 0,0
21.05.2019 14:00:00 18,6 7,1 - 15 8 NW 1018,6 10 0,0
21.05.2019 13:00:00 18,3 7,7 - 13 7 NNW 1018,6 10 0,0
21.05.2019 12:00:00 17,0 6,3 - 15 8 NW 1018,7 10 0,0
21.05.2019 11:00:00 16,5 7,8 - 15 8 NW 1018,7 10 0,0
21.05.2019 10:00:00 15,1 7,9 12,0 13 7 NNW 1018,8 10 0,0
21.05.2019 09:00:00 13,7 7,5 - 13 7 NNW 1018,7 10 0,0
21.05.2019 08:00:00 11,5 7,8 - 11 6 NW 1018,4 10 0,0
21.05.2019 07:00:00 9,6 7,5 - 8 4 W 1017,8 10 0,0
21.05.2019 06:00:00 8,0 7,2 - 5 3 W 1017,6 10 0,0
21.05.2019 05:00:00 7,1 6,5 - 8 4 WSW 1017,3 10 0,0
21.05.2019 04:00:00 6,7 5,4 - 9 5 WSW 1017,0 10 0,0
21.05.2019 03:00:00 8,8 6,8 - 8 4 W 1016,6 10 0,0
21.05.2019 02:00:00 10,4 7,6 - 5 3 - 1016,2 10 0,0
21.05.2019 01:00:00 11,5 7,9 - 5 3 - 1016,1 10 0,0
21.05.2019 00:00:00 10,5 8,6 - 5 3 SW 1015,9 10 0,0
20.05.2019 23:00:00 12,7 8,8 - 4 2 S 1015,5 10 0,0
20.05.2019 22:00:00 15,5 8,2 - 8 4 WNW 1015,0 10 0,0
20.05.2019 21:00:00 16,3 8,0 - 9 5 N 1014,2 10 0,0
20.05.2019 20:00:00 17,4 8,1 - 8 4 NW 1013,9 10 0,0
20.05.2019 19:00:00 18,5 8,5 - 11 6 NW 1013,5 10 0,0
20.05.2019 18:00:00 17,5 8,8 - 15 8 WNW 1013,4 10 0,0
20.05.2019 17:00:00 18,0 8,4 - 9 5 NNW 1013,2 10 0,0
20.05.2019 16:00:00 18,0 8,9 - 9 5 NNW 1013,2 10 0,0
20.05.2019 15:00:00 17,6 9,2 - 16 9 NW 1013,1 10 0,0
20.05.2019 14:00:00 17,4 9,4 - 13 7 NNW 1013,0 10 0,0
20.05.2019 13:00:00 17,0 10,4 - 16 9 WNW 1013,0 10 0,0
20.05.2019 12:00:00 17,0 10,2 - 13 7 NNW 1012,9 10 0,0
20.05.2019 11:00:00 16,0 11,5 - 11 6 WNW 1012,9 10 0,0
20.05.2019 10:00:00 14,6 11,1 11,9 9 5 NNW 1012,9 10 0,0
20.05.2019 09:00:00 12,8 10,6 - 11 6 NW 1012,7 10 0,0
20.05.2019 08:00:00 11,9 10,6 - 8 4 WNW 1012,3 9 0,0
20.05.2019 07:00:00 11,5 10,5 - 8 4 NW 1011,8 7 0,0
20.05.2019 06:00:00 11,2 10,5 - 5 3 WNW 1011,4 2,5 0,0
20.05.2019 05:00:00 11,4 10,7 - 5 3 - 1011,3 6 0,0
20.05.2019 04:00:00 11,4 10,8 - 5 3 WSW 1011,2 6 0,0
20.05.2019 03:00:00 11,7 10,8 - 4 2 WNW 1011,0 7 0,0
20.05.2019 02:00:00 11,5 10,8 - 4 2 - 1011,2 8 0,0
20.05.2019 01:00:00 12,2 11,1 - 4 2 NW 1011,2 10 0,0
20.05.2019 00:00:00 12,6 11,3 - 5 3 NW 1011,4 10 0,0
19.05.2019 23:00:00 12,2 11,4 - 5 3 - 1011,2 10 0,2
19.05.2019 22:00:00 12,4 11,2 - 5 3 SSW 1011,1 10 0,8
19.05.2019 21:00:00 13,6 8,6 - 11 6 NNE 1010,7 3,6 2,4
19.05.2019 20:00:00 16,3 9,7 - 5 3 - 1009,9 10 0,0
19.05.2019 19:00:00 16,8 9,5 - 8 4 E 1009,4 10 0,0
19.05.2019 18:00:00 17,1 9,4 - 11 6 E 1009,4 30 0,0
19.05.2019 17:00:00 17,0 9,8 - 16 9 E 1009,5 10 0,0
19.05.2019 16:00:00 17,9 7,6 - 13 7 N 1009,5 10 0,0
19.05.2019 15:00:00 17,9 8,0 - 9 5 NNE 1009,6 10 0,0
19.05.2019 14:00:00 17,9 9,4 - 9 5 - 1009,9 10 0,0
19.05.2019 13:00:00 16,7 9,0 - 13 7 ENE 1010,0 10 0,0
19.05.2019 12:00:00 15,7 9,5 - 11 6 NE 1010,0 10 0,0
19.05.2019 11:00:00 15,4 10,3 - 11 6 NE 1009,9 10 0,0
19.05.2019 10:00:00 14,0 10,7 11,7 11 6 NE 1009,8 10 0,0
19.05.2019 09:00:00 11,3 11,0 - 4 2 - 1009,5 8 0,0
19.05.2019 08:00:00 9,2 9,2 - 4 2 - 1009,4 7 0,0
19.05.2019 07:00:00 8,1 8,1 - 2 1 SW 1009,2 4,4 0,0
19.05.2019 06:00:00 7,0 6,9 - 4 2 SW 1009,0 3,3 0,0
19.05.2019 05:00:00 6,7 6,6 - 4 2 - 1008,9 0,5 0,0
19.05.2019 04:00:00 6,8 6,7 - 2 1 WSW 1008,9 0,6 0,0
19.05.2019 03:00:00 6,4 6,2 - 4 2 SSW 1008,7 10 0,0
19.05.2019 02:00:00 6,9 6,7 - 2 1 W 1008,6 10 0,0
19.05.2019 01:00:00 6,3 5,8 - 8 4 SW 1008,6 8 0,0
19.05.2019 00:00:00 8,3 7,6 - 2 1 SSW 1008,7 10 0,0
18.05.2019 23:00:00 9,1 7,8 - 5 3 SW 1008,5 10 0,0
18.05.2019 22:00:00 12,1 9,1 - 4 2 - 1008,3 10 0,0
18.05.2019 21:00:00 13,3 9,4 - 4 2 NNE 1008,0 10 0,0
18.05.2019 20:00:00 13,9 8,9 - 13 7 N 1007,6 10 0,0
18.05.2019 19:00:00 15,1 8,2 - 11 6 N 1007,0 10 0,0
18.05.2019 18:00:00 15,4 8,9 - 8 4 WNW 1006,6 7 0,0
18.05.2019 17:00:00 15,7 9,2 - 8 4 NW 1006,5 10 0,0
18.05.2019 16:00:00 15,3 8,4 - 8 4 N 1006,4 10 0,0
18.05.2019 15:00:00 15,0 9,3 - 5 3 - 1006,4 10 0,0
18.05.2019 14:00:00 14,3 8,5 - 8 4 S 1006,4 10 0,0
18.05.2019 13:00:00 15,0 9,2 - 5 3 - 1006,2 10 0,0
18.05.2019 12:00:00 14,8 9,2 - 8 4 - 1006,4 10 0,0
18.05.2019 11:00:00 13,8 8,4 - 4 2 - 1006,5 10 0,0
18.05.2019 10:00:00 13,4 8,2 11,7 5 3 - 1006,4 10 0,0
18.05.2019 09:00:00 12,4 9,2 - 5 3 - 1006,4 10 0,0
18.05.2019 08:00:00 11,2 9,3 - 2 1 - 1006,1 7 0,0
18.05.2019 07:00:00 10,3 9,7 - 4 2 E 1006,1 4,7 0,0
18.05.2019 06:00:00 9,5 9,2 - 5 3 N 1006,0 3,5 0,0
18.05.2019 05:00:00 9,4 8,9 - 0 0 N 1005,9 4,9 0,0
18.05.2019 04:00:00 10,0 9,4 - 4 2 - 1006,1 6 0,0
18.05.2019 03:00:00 10,0 9,5 - 4 2 NNW 1006,4 4,9 0,0
18.05.2019 02:00:00 9,9 9,5 - 4 2 N 1006,7 4,9 0,0

tt = Température de l'air
td = dewpoint
tt -100cm = Température de l'air -100cm
ff = Vitesse du vent
dd = Direction du vent
ppp = reduced air pressure
vv = visibility
rr = Quantités de précipitations

stations d'obs. à proximité